This is the latest recevied weather packets stored in our database for station/object HK4DAP-11. If no packets are shown the sender has not sent any weather packets the latest 10 day(s).
| Time | Temp. | Humidity | Pressure | Rain* | Wind** | Luminosity | Snow |
|---|---|---|---|---|---|---|---|
| 1787506702 | 27.78° C | 74% | 849.9 hPa | - | - | - | - |
| 1787506402 | 27.78° C | 79% | 850 hPa | - | - | - | - |
| 1787506102 | 28.89° C | 78% | 850 hPa | - | - | - | - |
| 1787505804 | 27.78° C | 77% | 850.1 hPa | - | - | - | - |
| 1787505506 | 27.22° C | 72% | 849.9 hPa | - | - | - | - |
| 1787505202 | 27.22° C | 68% | 850.2 hPa | - | - | - | - |
| 1787504901 | 26.67° C | 63% | 850.2 hPa | - | - | - | - |
| 1787504601 | 26.67° C | 61% | 850.3 hPa | - | - | - | - |
| 1787504301 | 26.67° C | 69% | 850.5 hPa | - | - | - | - |
| 1787504001 | 26.67° C | 69% | 850.7 hPa | - | - | - | - |
| 1787503701 | 26.67° C | 69% | 850.7 hPa | - | - | - | - |
| 1787503401 | 27.22° C | 68% | 850.8 hPa | - | - | - | - |
| 1787503101 | 26.67° C | 70% | 850.9 hPa | - | - | - | - |
| 1787502800 | 26.67° C | 71% | 850.9 hPa | - | - | - | - |
| 1787502500 | 26.67° C | 75% | 851.1 hPa | - | - | - | - |
| 1787502200 | 27.22° C | 73% | 851.2 hPa | - | - | - | - |
| 1787501900 | 27.22° C | 72% | 851.2 hPa | - | - | - | - |
| 1787501600 | 27.22° C | 69% | 851.2 hPa | - | - | - | - |
| 1787501300 | 28.33° C | 66% | 851.3 hPa | - | - | - | - |
| 1787501000 | 28.33° C | 63% | 851.4 hPa | - | - | - | - |
| 1787500700 | 28.33° C | 62% | 851.4 hPa | - | - | - | - |
| 1787500399 | 27.78° C | 62% | 851.4 hPa | - | - | - | - |
| 1787500099 | 27.78° C | 63% | 851.4 hPa | - | - | - | - |
| 1787499801 | 28.89° C | 60% | 851.5 hPa | - | - | - | - |
| 1787499499 | 28.33° C | 61% | 851.5 hPa | - | - | - | - |
* Rain since midnight (hover to see other rain measurements)
** Current wind speed in m/s (hover to see current wind gust speed)